Location: Unspecified
(0.0000°N, 0.0000°E)
Time: 17:25:20
(UTC+00:00)

N. Korean satellite - Pass Details

Date: 15 January 2020
Orbit: 454 x 507 km, 97.2° (Epoch: 22 January)

Event Time Altitude Azimuth Distance (km) Brightness Sun altitude
Rises 05:29:03 0° 8° (N) 2,515 10.1 -9.3°
Reaches altitude 10° 05:31:05 10° 6° (N) 1,649 9.1 -8.9°
Maximum altitude 05:34:37 75° 280° (W) 507 6.5 -8.0°
Drops below altitude 10° 05:38:15 10° 195° (SSW) 1,688 9.4 -7.2°
Sets 05:40:21 0° 193° (SSW) 2,581 10.4 -6.7°
